Index of /20260502/WXO-DD/model_caps/3km/12/014
Name Last modified Size Description
Parent Directory -
20260502T12Z_MSC_CAPS_AbsoluteVorticity_IsbL-0250_RLatLon0.03_PT014H.grib2 2026-05-02 18:09 1.1M
20260502T12Z_MSC_CAPS_AbsoluteVorticity_IsbL-0500_RLatLon0.03_PT014H.grib2 2026-05-02 18:09 1.1M
20260502T12Z_MSC_CAPS_AbsoluteVorticity_IsbL-0700_RLatLon0.03_PT014H.grib2 2026-05-02 18:09 1.0M
20260502T12Z_MSC_CAPS_AbsoluteVorticity_IsbL-0850_RLatLon0.03_PT014H.grib2 2026-05-02 18:09 1.2M
20260502T12Z_MSC_CAPS_AbsoluteVorticity_IsbL-1000_RLatLon0.03_PT014H.grib2 2026-05-02 18:09 1.3M
20260502T12Z_MSC_CAPS_AirDensity_AGL-120m_RLatLon0.03_PT014H.grib2 2026-05-02 18:09 1.4M
20260502T12Z_MSC_CAPS_AirDensity_AGL-40m_RLatLon0.03_PT014H.grib2 2026-05-02 18:09 1.4M
20260502T12Z_MSC_CAPS_AirDensity_AGL-80m_RLatLon0.03_PT014H.grib2 2026-05-02 18:09 1.4M
20260502T12Z_MSC_CAPS_AirTemp_AGL-120m_RLatLon0.03_PT014H.grib2 2026-05-02 18:09 1.7M
20260502T12Z_MSC_CAPS_AirTemp_AGL-2m_RLatLon0.03_PT014H.grib2 2026-05-02 18:09 1.7M
20260502T12Z_MSC_CAPS_AirTemp_AGL-40m_RLatLon0.03_PT014H.grib2 2026-05-02 18:09 1.5M
20260502T12Z_MSC_CAPS_AirTemp_AGL-80m_RLatLon0.03_PT014H.grib2 2026-05-02 18:09 1.8M
20260502T12Z_MSC_CAPS_AirTemp_IsbL-0050_RLatLon0.03_PT014H.grib2 2026-05-02 18:09 695K
20260502T12Z_MSC_CAPS_AirTemp_IsbL-0100_RLatLon0.03_PT014H.grib2 2026-05-02 18:09 737K
20260502T12Z_MSC_CAPS_AirTemp_IsbL-0150_RLatLon0.03_PT014H.grib2 2026-05-02 18:09 756K
20260502T12Z_MSC_CAPS_AirTemp_IsbL-0175_RLatLon0.03_PT014H.grib2 2026-05-02 18:09 774K
20260502T12Z_MSC_CAPS_AirTemp_IsbL-0200_RLatLon0.03_PT014H.grib2 2026-05-02 18:09 790K
20260502T12Z_MSC_CAPS_AirTemp_IsbL-0225_RLatLon0.03_PT014H.grib2 2026-05-02 18:09 792K
20260502T12Z_MSC_CAPS_AirTemp_IsbL-0250_RLatLon0.03_PT014H.grib2 2026-05-02 18:09 781K
20260502T12Z_MSC_CAPS_AirTemp_IsbL-0275_RLatLon0.03_PT014H.grib2 2026-05-02 18:09 1.0M
20260502T12Z_MSC_CAPS_AirTemp_IsbL-0300_RLatLon0.03_PT014H.grib2 2026-05-02 18:09 1.0M
20260502T12Z_MSC_CAPS_AirTemp_IsbL-0350_RLatLon0.03_PT014H.grib2 2026-05-02 18:09 751K
20260502T12Z_MSC_CAPS_AirTemp_IsbL-0400_RLatLon0.03_PT014H.grib2 2026-05-02 18:09 754K
20260502T12Z_MSC_CAPS_AirTemp_IsbL-0450_RLatLon0.03_PT014H.grib2 2026-05-02 18:09 768K
20260502T12Z_MSC_CAPS_AirTemp_IsbL-0500_RLatLon0.03_PT014H.grib2 2026-05-02 18:09 786K
20260502T12Z_MSC_CAPS_AirTemp_IsbL-0550_RLatLon0.03_PT014H.grib2 2026-05-02 18:09 955K
20260502T12Z_MSC_CAPS_AirTemp_IsbL-0600_RLatLon0.03_PT014H.grib2 2026-05-02 18:09 972K
20260502T12Z_MSC_CAPS_AirTemp_IsbL-0650_RLatLon0.03_PT014H.grib2 2026-05-02 18:09 1.0M
20260502T12Z_MSC_CAPS_AirTemp_IsbL-0700_RLatLon0.03_PT014H.grib2 2026-05-02 18:09 1.0M
20260502T12Z_MSC_CAPS_AirTemp_IsbL-0750_RLatLon0.03_PT014H.grib2 2026-05-02 18:09 1.0M
20260502T12Z_MSC_CAPS_AirTemp_IsbL-0800_RLatLon0.03_PT014H.grib2 2026-05-02 18:09 1.0M
20260502T12Z_MSC_CAPS_AirTemp_IsbL-0850_RLatLon0.03_PT014H.grib2 2026-05-02 18:09 1.0M
20260502T12Z_MSC_CAPS_AirTemp_IsbL-0875_RLatLon0.03_PT014H.grib2 2026-05-02 18:09 1.0M
20260502T12Z_MSC_CAPS_AirTemp_IsbL-0900_RLatLon0.03_PT014H.grib2 2026-05-02 18:09 1.0M
20260502T12Z_MSC_CAPS_AirTemp_IsbL-0925_RLatLon0.03_PT014H.grib2 2026-05-02 18:09 1.0M
20260502T12Z_MSC_CAPS_AirTemp_IsbL-0950_RLatLon0.03_PT014H.grib2 2026-05-02 18:09 1.0M
20260502T12Z_MSC_CAPS_AirTemp_IsbL-0970_RLatLon0.03_PT014H.grib2 2026-05-02 18:09 1.0M
20260502T12Z_MSC_CAPS_AirTemp_IsbL-0985_RLatLon0.03_PT014H.grib2 2026-05-02 18:09 1.0M
20260502T12Z_MSC_CAPS_AirTemp_IsbL-1000_RLatLon0.03_PT014H.grib2 2026-05-02 18:09 1.0M
20260502T12Z_MSC_CAPS_AirTemp_IsbL-1015_RLatLon0.03_PT014H.grib2 2026-05-02 18:09 1.0M
20260502T12Z_MSC_CAPS_Albedo_Sfc_RLatLon0.03_PT014H.grib2 2026-05-02 18:09 2.7M
20260502T12Z_MSC_CAPS_CAPE_Sfc_RLatLon0.03_PT014H.grib2 2026-05-02 18:09 110K
20260502T12Z_MSC_CAPS_CloudWater_EAtm_RLatLon0.03_PT014H.grib2 2026-05-02 18:09 1.4M
20260502T12Z_MSC_CAPS_ConvectivePrecip-Accum_Sfc_RLatLon0.03_PT014H.grib2 2026-05-02 18:09 2.8M
20260502T12Z_MSC_CAPS_DewPointDepression_AGL-120m_RLatLon0.03_PT014H.grib2 2026-05-02 18:09 2.0M
20260502T12Z_MSC_CAPS_DewPointDepression_AGL-2m_RLatLon0.03_PT014H.grib2 2026-05-02 18:09 2.1M
20260502T12Z_MSC_CAPS_DewPointDepression_AGL-40m_RLatLon0.03_PT014H.grib2 2026-05-02 18:09 2.0M
20260502T12Z_MSC_CAPS_DewPointDepression_AGL-80m_RLatLon0.03_PT014H.grib2 2026-05-02 18:09 2.0M
20260502T12Z_MSC_CAPS_DewPointDepression_IsbL-0050_RLatLon0.03_PT014H.grib2 2026-05-02 18:09 11K
20260502T12Z_MSC_CAPS_DewPointDepression_IsbL-0100_RLatLon0.03_PT014H.grib2 2026-05-02 18:09 105K
20260502T12Z_MSC_CAPS_DewPointDepression_IsbL-0150_RLatLon0.03_PT014H.grib2 2026-05-02 18:09 108K
20260502T12Z_MSC_CAPS_DewPointDepression_IsbL-0175_RLatLon0.03_PT014H.grib2 2026-05-02 18:09 243K
20260502T12Z_MSC_CAPS_DewPointDepression_IsbL-0200_RLatLon0.03_PT014H.grib2 2026-05-02 18:09 384K
20260502T12Z_MSC_CAPS_DewPointDepression_IsbL-0225_RLatLon0.03_PT014H.grib2 2026-05-02 18:09 627K
20260502T12Z_MSC_CAPS_DewPointDepression_IsbL-0250_RLatLon0.03_PT014H.grib2 2026-05-02 18:09 842K
20260502T12Z_MSC_CAPS_DewPointDepression_IsbL-0275_RLatLon0.03_PT014H.grib2 2026-05-02 18:09 1.0M
20260502T12Z_MSC_CAPS_DewPointDepression_IsbL-0300_RLatLon0.03_PT014H.grib2 2026-05-02 18:09 1.0M
20260502T12Z_MSC_CAPS_DewPointDepression_IsbL-0350_RLatLon0.03_PT014H.grib2 2026-05-02 18:09 1.1M
20260502T12Z_MSC_CAPS_DewPointDepression_IsbL-0400_RLatLon0.03_PT014H.grib2 2026-05-02 18:09 1.1M
20260502T12Z_MSC_CAPS_DewPointDepression_IsbL-0450_RLatLon0.03_PT014H.grib2 2026-05-02 18:09 1.1M
20260502T12Z_MSC_CAPS_DewPointDepression_IsbL-0500_RLatLon0.03_PT014H.grib2 2026-05-02 18:09 1.1M
20260502T12Z_MSC_CAPS_DewPointDepression_IsbL-0550_RLatLon0.03_PT014H.grib2 2026-05-02 18:09 1.2M
20260502T12Z_MSC_CAPS_DewPointDepression_IsbL-0600_RLatLon0.03_PT014H.grib2 2026-05-02 18:09 1.2M
20260502T12Z_MSC_CAPS_DewPointDepression_IsbL-0650_RLatLon0.03_PT014H.grib2 2026-05-02 18:09 1.3M
20260502T12Z_MSC_CAPS_DewPointDepression_IsbL-0700_RLatLon0.03_PT014H.grib2 2026-05-02 18:09 1.3M
20260502T12Z_MSC_CAPS_DewPointDepression_IsbL-0750_RLatLon0.03_PT014H.grib2 2026-05-02 18:09 1.3M
20260502T12Z_MSC_CAPS_DewPointDepression_IsbL-0800_RLatLon0.03_PT014H.grib2 2026-05-02 18:09 1.3M
20260502T12Z_MSC_CAPS_DewPointDepression_IsbL-0850_RLatLon0.03_PT014H.grib2 2026-05-02 18:09 1.3M
20260502T12Z_MSC_CAPS_DewPointDepression_IsbL-0875_RLatLon0.03_PT014H.grib2 2026-05-02 18:09 1.4M
20260502T12Z_MSC_CAPS_DewPointDepression_IsbL-0900_RLatLon0.03_PT014H.grib2 2026-05-02 18:09 1.3M
20260502T12Z_MSC_CAPS_DewPointDepression_IsbL-0925_RLatLon0.03_PT014H.grib2 2026-05-02 18:09 1.3M
20260502T12Z_MSC_CAPS_DewPointDepression_IsbL-0950_RLatLon0.03_PT014H.grib2 2026-05-02 18:09 1.3M
20260502T12Z_MSC_CAPS_DewPointDepression_IsbL-0970_RLatLon0.03_PT014H.grib2 2026-05-02 18:09 1.3M
20260502T12Z_MSC_CAPS_DewPointDepression_IsbL-0985_RLatLon0.03_PT014H.grib2 2026-05-02 18:09 1.3M
20260502T12Z_MSC_CAPS_DewPointDepression_IsbL-1000_RLatLon0.03_PT014H.grib2 2026-05-02 18:09 1.3M
20260502T12Z_MSC_CAPS_DewPointDepression_IsbL-1015_RLatLon0.03_PT014H.grib2 2026-05-02 18:09 1.3M
20260502T12Z_MSC_CAPS_DewPoint_AGL-120m_RLatLon0.03_PT014H.grib2 2026-05-02 18:09 3.5M
20260502T12Z_MSC_CAPS_DewPoint_AGL-2m_RLatLon0.03_PT014H.grib2 2026-05-02 18:09 1.7M
20260502T12Z_MSC_CAPS_DewPoint_AGL-40m_RLatLon0.03_PT014H.grib2 2026-05-02 18:09 3.6M
20260502T12Z_MSC_CAPS_DewPoint_AGL-80m_RLatLon0.03_PT014H.grib2 2026-05-02 18:09 3.6M
20260502T12Z_MSC_CAPS_DownwardLongwaveRadiationFlux-Accum_Sfc_RLatLon0.03_PT014H.grib2 2026-05-02 18:09 2.4M
20260502T12Z_MSC_CAPS_DownwardShortwaveRadiationFlux-Accum_NTAtm_RLatLon0.03_PT014H.grib2 2026-05-02 18:09 467K
20260502T12Z_MSC_CAPS_DownwardShortwaveRadiationFlux-Accum_Sfc_RLatLon0.03_PT014H.grib2 2026-05-02 18:09 2.8M
20260502T12Z_MSC_CAPS_FreezingRain-Accum_Sfc_RLatLon0.03_PT014H.grib2 2026-05-02 18:09 443K
20260502T12Z_MSC_CAPS_GeopotentialHeight_IsbL-0050_RLatLon0.03_PT014H.grib2 2026-05-02 18:09 639K
20260502T12Z_MSC_CAPS_GeopotentialHeight_IsbL-0100_RLatLon0.03_PT014H.grib2 2026-05-02 18:09 768K
20260502T12Z_MSC_CAPS_GeopotentialHeight_IsbL-0150_RLatLon0.03_PT014H.grib2 2026-05-02 18:09 728K
20260502T12Z_MSC_CAPS_GeopotentialHeight_IsbL-0175_RLatLon0.03_PT014H.grib2 2026-05-02 18:09 738K
20260502T12Z_MSC_CAPS_GeopotentialHeight_IsbL-0200_RLatLon0.03_PT014H.grib2 2026-05-02 18:09 748K
20260502T12Z_MSC_CAPS_GeopotentialHeight_IsbL-0225_RLatLon0.03_PT014H.grib2 2026-05-02 18:09 759K
20260502T12Z_MSC_CAPS_GeopotentialHeight_IsbL-0250_RLatLon0.03_PT014H.grib2 2026-05-02 18:09 771K
20260502T12Z_MSC_CAPS_GeopotentialHeight_IsbL-0275_RLatLon0.03_PT014H.grib2 2026-05-02 18:09 780K
20260502T12Z_MSC_CAPS_GeopotentialHeight_IsbL-0300_RLatLon0.03_PT014H.grib2 2026-05-02 18:09 786K
20260502T12Z_MSC_CAPS_GeopotentialHeight_IsbL-0350_RLatLon0.03_PT014H.grib2 2026-05-02 18:09 787K
20260502T12Z_MSC_CAPS_GeopotentialHeight_IsbL-0400_RLatLon0.03_PT014H.grib2 2026-05-02 18:09 782K
20260502T12Z_MSC_CAPS_GeopotentialHeight_IsbL-0450_RLatLon0.03_PT014H.grib2 2026-05-02 18:09 770K
20260502T12Z_MSC_CAPS_GeopotentialHeight_IsbL-0500_RLatLon0.03_PT014H.grib2 2026-05-02 18:09 761K
20260502T12Z_MSC_CAPS_GeopotentialHeight_IsbL-0550_RLatLon0.03_PT014H.grib2 2026-05-02 18:09 750K
20260502T12Z_MSC_CAPS_GeopotentialHeight_IsbL-0600_RLatLon0.03_PT014H.grib2 2026-05-02 18:09 633K
20260502T12Z_MSC_CAPS_GeopotentialHeight_IsbL-0650_RLatLon0.03_PT014H.grib2 2026-05-02 18:09 634K
20260502T12Z_MSC_CAPS_GeopotentialHeight_IsbL-0700_RLatLon0.03_PT014H.grib2 2026-05-02 18:09 633K
20260502T12Z_MSC_CAPS_GeopotentialHeight_IsbL-0750_RLatLon0.03_PT014H.grib2 2026-05-02 18:09 635K
20260502T12Z_MSC_CAPS_GeopotentialHeight_IsbL-0800_RLatLon0.03_PT014H.grib2 2026-05-02 18:09 820K
20260502T12Z_MSC_CAPS_GeopotentialHeight_IsbL-0850_RLatLon0.03_PT014H.grib2 2026-05-02 18:09 828K
20260502T12Z_MSC_CAPS_GeopotentialHeight_IsbL-0875_RLatLon0.03_PT014H.grib2 2026-05-02 18:09 835K
20260502T12Z_MSC_CAPS_GeopotentialHeight_IsbL-0900_RLatLon0.03_PT014H.grib2 2026-05-02 18:09 839K
20260502T12Z_MSC_CAPS_GeopotentialHeight_IsbL-0925_RLatLon0.03_PT014H.grib2 2026-05-02 18:09 834K
20260502T12Z_MSC_CAPS_GeopotentialHeight_IsbL-0950_RLatLon0.03_PT014H.grib2 2026-05-02 18:09 853K
20260502T12Z_MSC_CAPS_GeopotentialHeight_IsbL-0970_RLatLon0.03_PT014H.grib2 2026-05-02 18:09 867K
20260502T12Z_MSC_CAPS_GeopotentialHeight_IsbL-0985_RLatLon0.03_PT014H.grib2 2026-05-02 18:09 875K
20260502T12Z_MSC_CAPS_GeopotentialHeight_IsbL-1000_RLatLon0.03_PT014H.grib2 2026-05-02 18:09 883K
20260502T12Z_MSC_CAPS_GeopotentialHeight_IsbL-1015_RLatLon0.03_PT014H.grib2 2026-05-02 18:09 878K
20260502T12Z_MSC_CAPS_GeopotentialHeight_Sfc_RLatLon0.03_PT014H.grib2 2026-05-02 18:09 1.0M
20260502T12Z_MSC_CAPS_IcePellets-Accum_Sfc_RLatLon0.03_PT014H.grib2 2026-05-02 18:09 46K
20260502T12Z_MSC_CAPS_LatentHeatNetFlux_Sfc_RLatLon0.03_PT014H.grib2 2026-05-02 18:09 2.4M
20260502T12Z_MSC_CAPS_LiftedIndex-MU-VT_IsbL-0500_RLatLon0.03_PT014H.grib2 2026-05-02 18:09 3.3M
20260502T12Z_MSC_CAPS_MixedLayerThickness_Sfc_RLatLon0.03_PT014H.nc 2026-05-02 18:11 16M
20260502T12Z_MSC_CAPS_NetLongwaveRadiationFlux-Accum_Sfc_RLatLon0.03_PT014H.grib2 2026-05-02 18:09 2.7M
20260502T12Z_MSC_CAPS_NetShortwaveRadiationFlux-Accum_Sfc_RLatLon0.03_PT014H.grib2 2026-05-02 18:09 2.8M
20260502T12Z_MSC_CAPS_PlanetaryBoundaryLayerHeight_Sfc_RLatLon0.03_PT014H.grib2 2026-05-02 18:09 2.9M
20260502T12Z_MSC_CAPS_Precip-Accum_Sfc_RLatLon0.03_PT014H.grib2 2026-05-02 18:09 3.9M
20260502T12Z_MSC_CAPS_PrecipRate_Sfc_RLatLon0.03_PT014H.grib2 2026-05-02 18:09 575K
20260502T12Z_MSC_CAPS_PrecipType-Instant_Sfc_RLatLon0.03_PT014H.grib2 2026-05-02 18:09 1.8M
20260502T12Z_MSC_CAPS_Pressure_MSL_RLatLon0.03_PT014H.grib2 2026-05-02 18:09 769K
20260502T12Z_MSC_CAPS_Pressure_Sfc_RLatLon0.03_PT014H.grib2 2026-05-02 18:09 1.2M
20260502T12Z_MSC_CAPS_RadiativeTemp_Sfc_RLatLon0.03_PT014H.grib2 2026-05-02 18:09 2.1M
20260502T12Z_MSC_CAPS_Rain-Accum_Sfc_RLatLon0.03_PT014H.grib2 2026-05-02 18:09 1.9M
20260502T12Z_MSC_CAPS_RelativeHumidity_AGL-120m_RLatLon0.03_PT014H.grib2 2026-05-02 18:09 2.7M
20260502T12Z_MSC_CAPS_RelativeHumidity_AGL-2m_RLatLon0.03_PT014H.grib2 2026-05-02 18:09 2.9M
20260502T12Z_MSC_CAPS_RelativeHumidity_AGL-40m_RLatLon0.03_PT014H.grib2 2026-05-02 18:09 2.8M
20260502T12Z_MSC_CAPS_RelativeHumidity_AGL-80m_RLatLon0.03_PT014H.grib2 2026-05-02 18:09 2.7M
20260502T12Z_MSC_CAPS_RelativeHumidity_IsbL-0050_RLatLon0.03_PT014H.grib2 2026-05-02 18:09 723K
20260502T12Z_MSC_CAPS_RelativeHumidity_IsbL-0100_RLatLon0.03_PT014H.grib2 2026-05-02 18:09 859K
20260502T12Z_MSC_CAPS_RelativeHumidity_IsbL-0150_RLatLon0.03_PT014H.grib2 2026-05-02 18:09 364K
20260502T12Z_MSC_CAPS_RelativeHumidity_IsbL-0175_RLatLon0.03_PT014H.grib2 2026-05-02 18:09 483K
20260502T12Z_MSC_CAPS_RelativeHumidity_IsbL-0200_RLatLon0.03_PT014H.grib2 2026-05-02 18:09 678K
20260502T12Z_MSC_CAPS_RelativeHumidity_IsbL-0225_RLatLon0.03_PT014H.grib2 2026-05-02 18:09 880K
20260502T12Z_MSC_CAPS_RelativeHumidity_IsbL-0250_RLatLon0.03_PT014H.grib2 2026-05-02 18:09 1.1M
20260502T12Z_MSC_CAPS_RelativeHumidity_IsbL-0275_RLatLon0.03_PT014H.grib2 2026-05-02 18:09 1.4M
20260502T12Z_MSC_CAPS_RelativeHumidity_IsbL-0300_RLatLon0.03_PT014H.grib2 2026-05-02 18:09 1.5M
20260502T12Z_MSC_CAPS_RelativeHumidity_IsbL-0350_RLatLon0.03_PT014H.grib2 2026-05-02 18:09 1.9M
20260502T12Z_MSC_CAPS_RelativeHumidity_IsbL-0400_RLatLon0.03_PT014H.grib2 2026-05-02 18:09 1.9M
20260502T12Z_MSC_CAPS_RelativeHumidity_IsbL-0450_RLatLon0.03_PT014H.grib2 2026-05-02 18:09 1.9M
20260502T12Z_MSC_CAPS_RelativeHumidity_IsbL-0500_RLatLon0.03_PT014H.grib2 2026-05-02 18:09 1.9M
20260502T12Z_MSC_CAPS_RelativeHumidity_IsbL-0550_RLatLon0.03_PT014H.grib2 2026-05-02 18:09 2.1M
20260502T12Z_MSC_CAPS_RelativeHumidity_IsbL-0600_RLatLon0.03_PT014H.grib2 2026-05-02 18:09 2.1M
20260502T12Z_MSC_CAPS_RelativeHumidity_IsbL-0650_RLatLon0.03_PT014H.grib2 2026-05-02 18:09 2.3M
20260502T12Z_MSC_CAPS_RelativeHumidity_IsbL-0700_RLatLon0.03_PT014H.grib2 2026-05-02 18:09 2.3M
20260502T12Z_MSC_CAPS_RelativeHumidity_IsbL-0750_RLatLon0.03_PT014H.grib2 2026-05-02 18:09 2.3M
20260502T12Z_MSC_CAPS_RelativeHumidity_IsbL-0800_RLatLon0.03_PT014H.grib2 2026-05-02 18:09 2.4M
20260502T12Z_MSC_CAPS_RelativeHumidity_IsbL-0850_RLatLon0.03_PT014H.grib2 2026-05-02 18:09 2.5M
20260502T12Z_MSC_CAPS_RelativeHumidity_IsbL-0875_RLatLon0.03_PT014H.grib2 2026-05-02 18:09 2.6M
20260502T12Z_MSC_CAPS_RelativeHumidity_IsbL-0900_RLatLon0.03_PT014H.grib2 2026-05-02 18:09 2.6M
20260502T12Z_MSC_CAPS_RelativeHumidity_IsbL-0925_RLatLon0.03_PT014H.grib2 2026-05-02 18:09 2.6M
20260502T12Z_MSC_CAPS_RelativeHumidity_IsbL-0950_RLatLon0.03_PT014H.grib2 2026-05-02 18:09 2.7M
20260502T12Z_MSC_CAPS_RelativeHumidity_IsbL-0970_RLatLon0.03_PT014H.grib2 2026-05-02 18:09 2.7M
20260502T12Z_MSC_CAPS_RelativeHumidity_IsbL-0985_RLatLon0.03_PT014H.grib2 2026-05-02 18:09 2.8M
20260502T12Z_MSC_CAPS_RelativeHumidity_IsbL-1000_RLatLon0.03_PT014H.grib2 2026-05-02 18:09 2.8M
20260502T12Z_MSC_CAPS_RelativeHumidity_IsbL-1015_RLatLon0.03_PT014H.grib2 2026-05-02 18:09 2.8M
20260502T12Z_MSC_CAPS_Runoff-Accum_Sfc_RLatLon0.03_PT014H.grib2 2026-05-02 18:09 336K
20260502T12Z_MSC_CAPS_SeaIceAreaFraction_Sfc_RLatLon0.03_PT014H.nc 2026-05-02 18:11 15M
20260502T12Z_MSC_CAPS_SeaIceCompressiveStrength_Sfc_RLatLon0.03_PT014H.nc 2026-05-02 18:11 15M
20260502T12Z_MSC_CAPS_SeaIceDivergence_Sfc_RLatLon0.03_PT014H.nc 2026-05-02 18:11 15M
20260502T12Z_MSC_CAPS_SeaIceInternalPressure_Sfc_RLatLon0.03_PT014H.nc 2026-05-02 18:11 15M
20260502T12Z_MSC_CAPS_SeaIceShear_Sfc_RLatLon0.03_PT014H.nc 2026-05-02 18:11 14M
20260502T12Z_MSC_CAPS_SeaIceSnowTemp_Sfc_RLatLon0.03_PT014H.nc 2026-05-02 18:11 14M
20260502T12Z_MSC_CAPS_SeaIceSnowVolume_Sfc_RLatLon0.03_PT014H.nc 2026-05-02 18:11 15M
20260502T12Z_MSC_CAPS_SeaIceVelocityX_Sfc_RLatLon0.03_PT014H.nc 2026-05-02 18:11 15M
20260502T12Z_MSC_CAPS_SeaIceVelocityY_Sfc_RLatLon0.03_PT014H.nc 2026-05-02 18:11 15M
20260502T12Z_MSC_CAPS_SeaIceVolume_Sfc_RLatLon0.03_PT014H.nc 2026-05-02 18:11 15M
20260502T12Z_MSC_CAPS_SeaSurfaceHeight_Sfc_RLatLon0.03_PT014H.nc 2026-05-02 18:11 16M
20260502T12Z_MSC_CAPS_SeaWaterSalinity_DBS-0.5m_RLatLon0.03_PT014H.nc 2026-05-02 18:11 16M
20260502T12Z_MSC_CAPS_SeaWaterSalinity_DBS-all_RLatLon0.03_PT014H.nc 2026-05-02 18:11 107M
20260502T12Z_MSC_CAPS_SeaWaterTemp_DBS-0.5m_RLatLon0.03_PT014H.nc 2026-05-02 18:11 14M
20260502T12Z_MSC_CAPS_SeaWaterTemp_DBS-all_RLatLon0.03_PT014H.nc 2026-05-02 18:11 88M
20260502T12Z_MSC_CAPS_SeaWaterVelocityX_DBS-0.5m_RLatLon0.03_PT014H.nc 2026-05-02 18:11 17M
20260502T12Z_MSC_CAPS_SeaWaterVelocityX_DBS-all_RLatLon0.03_PT014H.nc 2026-05-02 18:11 210M
20260502T12Z_MSC_CAPS_SeaWaterVelocityY_DBS-0.5m_RLatLon0.03_PT014H.nc 2026-05-02 18:11 18M
20260502T12Z_MSC_CAPS_SeaWaterVelocityY_DBS-all_RLatLon0.03_PT014H.nc 2026-05-02 18:11 215M
20260502T12Z_MSC_CAPS_SensibleHeatNetFlux_Sfc_RLatLon0.03_PT014H.grib2 2026-05-02 18:09 2.1M
20260502T12Z_MSC_CAPS_ShowalterIndex_IsbL-0500_RLatLon0.03_PT014H.grib2 2026-05-02 18:09 4.3M
20260502T12Z_MSC_CAPS_Snow-Accum_Sfc_RLatLon0.03_PT014H.grib2 2026-05-02 18:09 3.0M
20260502T12Z_MSC_CAPS_SnowDensity_Sfc_RLatLon0.03_PT014H.grib2 2026-05-02 18:09 1.2M
20260502T12Z_MSC_CAPS_SnowDepthWaterEquivalent_Sfc_RLatLon0.03_PT014H.grib2 2026-05-02 18:09 671K
20260502T12Z_MSC_CAPS_SnowDepth_Sfc_RLatLon0.03_PT014H.grib2 2026-05-02 18:09 1.2M
20260502T12Z_MSC_CAPS_SoilTemp_DBS-0to10cm_RLatLon0.03_PT014H.grib2 2026-05-02 18:09 1.5M
20260502T12Z_MSC_CAPS_SoilTemp_Sfc_RLatLon0.03_PT014H.grib2 2026-05-02 18:09 1.8M
20260502T12Z_MSC_CAPS_SoilVolumetricIceContent_Sfc_RLatLon0.03_PT014H.grib2 2026-05-02 18:09 1.4M
20260502T12Z_MSC_CAPS_SoilVolumetricWaterContent_DBS-0to10cm_RLatLon0.03_PT014H.grib2 2026-05-02 18:09 1.2M
20260502T12Z_MSC_CAPS_SoilVolumetricWaterContent_DBS-0to1cm_RLatLon0.03_PT014H.grib2 2026-05-02 18:09 1.7M
20260502T12Z_MSC_CAPS_SpecificHumidity_AGL-120m_RLatLon0.03_PT014H.grib2 2026-05-02 18:09 1.7M
20260502T12Z_MSC_CAPS_SpecificHumidity_AGL-2m_RLatLon0.03_PT014H.grib2 2026-05-02 18:09 1.7M
20260502T12Z_MSC_CAPS_SpecificHumidity_AGL-40m_RLatLon0.03_PT014H.grib2 2026-05-02 18:09 1.8M
20260502T12Z_MSC_CAPS_SpecificHumidity_AGL-80m_RLatLon0.03_PT014H.grib2 2026-05-02 18:09 1.7M
20260502T12Z_MSC_CAPS_SpecificHumidity_IsbL-0050_RLatLon0.03_PT014H.grib2 2026-05-02 18:09 876K
20260502T12Z_MSC_CAPS_SpecificHumidity_IsbL-0100_RLatLon0.03_PT014H.grib2 2026-05-02 18:09 958K
20260502T12Z_MSC_CAPS_SpecificHumidity_IsbL-0150_RLatLon0.03_PT014H.grib2 2026-05-02 18:09 748K
20260502T12Z_MSC_CAPS_SpecificHumidity_IsbL-0175_RLatLon0.03_PT014H.grib2 2026-05-02 18:09 1.0M
20260502T12Z_MSC_CAPS_SpecificHumidity_IsbL-0200_RLatLon0.03_PT014H.grib2 2026-05-02 18:09 1.0M
20260502T12Z_MSC_CAPS_SpecificHumidity_IsbL-0225_RLatLon0.03_PT014H.grib2 2026-05-02 18:09 1.0M
20260502T12Z_MSC_CAPS_SpecificHumidity_IsbL-0250_RLatLon0.03_PT014H.grib2 2026-05-02 18:09 1.1M
20260502T12Z_MSC_CAPS_SpecificHumidity_IsbL-0275_RLatLon0.03_PT014H.grib2 2026-05-02 18:09 1.1M
20260502T12Z_MSC_CAPS_SpecificHumidity_IsbL-0300_RLatLon0.03_PT014H.grib2 2026-05-02 18:09 969K
20260502T12Z_MSC_CAPS_SpecificHumidity_IsbL-0350_RLatLon0.03_PT014H.grib2 2026-05-02 18:09 959K
20260502T12Z_MSC_CAPS_SpecificHumidity_IsbL-0400_RLatLon0.03_PT014H.grib2 2026-05-02 18:09 1.1M
20260502T12Z_MSC_CAPS_SpecificHumidity_IsbL-0450_RLatLon0.03_PT014H.grib2 2026-05-02 18:09 1.1M
20260502T12Z_MSC_CAPS_SpecificHumidity_IsbL-0500_RLatLon0.03_PT014H.grib2 2026-05-02 18:09 1.2M
20260502T12Z_MSC_CAPS_SpecificHumidity_IsbL-0550_RLatLon0.03_PT014H.grib2 2026-05-02 18:09 1.2M
20260502T12Z_MSC_CAPS_SpecificHumidity_IsbL-0600_RLatLon0.03_PT014H.grib2 2026-05-02 18:09 1.3M
20260502T12Z_MSC_CAPS_SpecificHumidity_IsbL-0650_RLatLon0.03_PT014H.grib2 2026-05-02 18:09 1.5M
20260502T12Z_MSC_CAPS_SpecificHumidity_IsbL-0700_RLatLon0.03_PT014H.grib2 2026-05-02 18:09 1.6M
20260502T12Z_MSC_CAPS_SpecificHumidity_IsbL-0750_RLatLon0.03_PT014H.grib2 2026-05-02 18:09 1.4M
20260502T12Z_MSC_CAPS_SpecificHumidity_IsbL-0800_RLatLon0.03_PT014H.grib2 2026-05-02 18:09 1.5M
20260502T12Z_MSC_CAPS_SpecificHumidity_IsbL-0850_RLatLon0.03_PT014H.grib2 2026-05-02 18:09 1.7M
20260502T12Z_MSC_CAPS_SpecificHumidity_IsbL-0875_RLatLon0.03_PT014H.grib2 2026-05-02 18:09 1.8M
20260502T12Z_MSC_CAPS_SpecificHumidity_IsbL-0900_RLatLon0.03_PT014H.grib2 2026-05-02 18:09 1.8M
20260502T12Z_MSC_CAPS_SpecificHumidity_IsbL-0925_RLatLon0.03_PT014H.grib2 2026-05-02 18:09 1.9M
20260502T12Z_MSC_CAPS_SpecificHumidity_IsbL-0950_RLatLon0.03_PT014H.grib2 2026-05-02 18:09 1.5M
20260502T12Z_MSC_CAPS_SpecificHumidity_IsbL-0970_RLatLon0.03_PT014H.grib2 2026-05-02 18:09 1.6M
20260502T12Z_MSC_CAPS_SpecificHumidity_IsbL-0985_RLatLon0.03_PT014H.grib2 2026-05-02 18:09 1.6M
20260502T12Z_MSC_CAPS_SpecificHumidity_IsbL-1000_RLatLon0.03_PT014H.grib2 2026-05-02 18:09 1.6M
20260502T12Z_MSC_CAPS_SpecificHumidity_IsbL-1015_RLatLon0.03_PT014H.grib2 2026-05-02 18:09 1.6M
20260502T12Z_MSC_CAPS_SpecificHumidity_Sfc_RLatLon0.03_PT014H.grib2 2026-05-02 18:09 2.0M
20260502T12Z_MSC_CAPS_StormRelativeHelicity_Sfc_RLatLon0.03_PT014H.grib2 2026-05-02 18:09 3.2M
20260502T12Z_MSC_CAPS_Thickness_IsbL-1000to0500_RLatLon0.03_PT014H.grib2 2026-05-02 18:09 472K
20260502T12Z_MSC_CAPS_TotalCloudCover_Sfc_RLatLon0.03_PT014H.grib2 2026-05-02 18:09 3.5M
20260502T12Z_MSC_CAPS_TurboclineDepth_Sfc_RLatLon0.03_PT014H.nc 2026-05-02 18:11 16M
20260502T12Z_MSC_CAPS_UpwardLongwaveRadiationFlux_NTAtm_RLatLon0.03_PT014H.grib2 2026-05-02 18:09 2.8M
20260502T12Z_MSC_CAPS_UpwardShortwaveRadiationFlux_NTAtm_RLatLon0.03_PT014H.grib2 2026-05-02 18:09 1.9M
20260502T12Z_MSC_CAPS_VerticalVelocity_IsbL-0250_RLatLon0.03_PT014H.grib2 2026-05-02 18:09 1.0M
20260502T12Z_MSC_CAPS_VerticalVelocity_IsbL-0500_RLatLon0.03_PT014H.grib2 2026-05-02 18:09 871K
20260502T12Z_MSC_CAPS_VerticalVelocity_IsbL-0700_RLatLon0.03_PT014H.grib2 2026-05-02 18:09 1.3M
20260502T12Z_MSC_CAPS_VerticalVelocity_IsbL-0850_RLatLon0.03_PT014H.grib2 2026-05-02 18:09 1.4M
20260502T12Z_MSC_CAPS_VerticalVelocity_IsbL-1000_RLatLon0.03_PT014H.grib2 2026-05-02 18:09 1.4M
20260502T12Z_MSC_CAPS_WindDir_AGL-10m_RLatLon0.03_PT014H.grib2 2026-05-02 18:09 2.3M
20260502T12Z_MSC_CAPS_WindDir_AGL-120m_RLatLon0.03_PT014H.grib2 2026-05-02 18:09 1.1M
20260502T12Z_MSC_CAPS_WindDir_AGL-40m_RLatLon0.03_PT014H.grib2 2026-05-02 18:09 1.2M
20260502T12Z_MSC_CAPS_WindDir_AGL-80m_RLatLon0.03_PT014H.grib2 2026-05-02 18:09 1.2M
20260502T12Z_MSC_CAPS_WindDir_IsbL-0050_RLatLon0.03_PT014H.grib2 2026-05-02 18:09 1.0M
20260502T12Z_MSC_CAPS_WindDir_IsbL-0100_RLatLon0.03_PT014H.grib2 2026-05-02 18:09 1.0M
20260502T12Z_MSC_CAPS_WindDir_IsbL-0150_RLatLon0.03_PT014H.grib2 2026-05-02 18:09 1.0M
20260502T12Z_MSC_CAPS_WindDir_IsbL-0175_RLatLon0.03_PT014H.grib2 2026-05-02 18:09 1.1M
20260502T12Z_MSC_CAPS_WindDir_IsbL-0200_RLatLon0.03_PT014H.grib2 2026-05-02 18:09 1.1M
20260502T12Z_MSC_CAPS_WindDir_IsbL-0225_RLatLon0.03_PT014H.grib2 2026-05-02 18:09 1.1M
20260502T12Z_MSC_CAPS_WindDir_IsbL-0250_RLatLon0.03_PT014H.grib2 2026-05-02 18:09 1.1M
20260502T12Z_MSC_CAPS_WindDir_IsbL-0275_RLatLon0.03_PT014H.grib2 2026-05-02 18:09 1.0M
20260502T12Z_MSC_CAPS_WindDir_IsbL-0300_RLatLon0.03_PT014H.grib2 2026-05-02 18:09 1.0M
20260502T12Z_MSC_CAPS_WindDir_IsbL-0350_RLatLon0.03_PT014H.grib2 2026-05-02 18:09 1.1M
20260502T12Z_MSC_CAPS_WindDir_IsbL-0400_RLatLon0.03_PT014H.grib2 2026-05-02 18:09 1.1M
20260502T12Z_MSC_CAPS_WindDir_IsbL-0450_RLatLon0.03_PT014H.grib2 2026-05-02 18:09 1.2M
20260502T12Z_MSC_CAPS_WindDir_IsbL-0500_RLatLon0.03_PT014H.grib2 2026-05-02 18:09 1.2M
20260502T12Z_MSC_CAPS_WindDir_IsbL-0550_RLatLon0.03_PT014H.grib2 2026-05-02 18:09 1.2M
20260502T12Z_MSC_CAPS_WindDir_IsbL-0600_RLatLon0.03_PT014H.grib2 2026-05-02 18:09 1.2M
20260502T12Z_MSC_CAPS_WindDir_IsbL-0650_RLatLon0.03_PT014H.grib2 2026-05-02 18:09 1.3M
20260502T12Z_MSC_CAPS_WindDir_IsbL-0700_RLatLon0.03_PT014H.grib2 2026-05-02 18:09 1.4M
20260502T12Z_MSC_CAPS_WindDir_IsbL-0750_RLatLon0.03_PT014H.grib2 2026-05-02 18:09 1.5M
20260502T12Z_MSC_CAPS_WindDir_IsbL-0800_RLatLon0.03_PT014H.grib2 2026-05-02 18:09 1.6M
20260502T12Z_MSC_CAPS_WindDir_IsbL-0850_RLatLon0.03_PT014H.grib2 2026-05-02 18:09 1.7M
20260502T12Z_MSC_CAPS_WindDir_IsbL-0875_RLatLon0.03_PT014H.grib2 2026-05-02 18:09 1.7M
20260502T12Z_MSC_CAPS_WindDir_IsbL-0900_RLatLon0.03_PT014H.grib2 2026-05-02 18:09 1.8M
20260502T12Z_MSC_CAPS_WindDir_IsbL-0925_RLatLon0.03_PT014H.grib2 2026-05-02 18:09 1.9M
20260502T12Z_MSC_CAPS_WindDir_IsbL-0950_RLatLon0.03_PT014H.grib2 2026-05-02 18:09 1.9M
20260502T12Z_MSC_CAPS_WindDir_IsbL-0970_RLatLon0.03_PT014H.grib2 2026-05-02 18:09 2.0M
20260502T12Z_MSC_CAPS_WindDir_IsbL-0985_RLatLon0.03_PT014H.grib2 2026-05-02 18:09 2.1M
20260502T12Z_MSC_CAPS_WindDir_IsbL-1000_RLatLon0.03_PT014H.grib2 2026-05-02 18:09 2.2M
20260502T12Z_MSC_CAPS_WindDir_IsbL-1015_RLatLon0.03_PT014H.grib2 2026-05-02 18:09 2.2M
20260502T12Z_MSC_CAPS_WindGust-Max_AGL-10m_RLatLon0.03_PT014H.grib2 2026-05-02 18:09 2.6M
20260502T12Z_MSC_CAPS_WindGust-Min_AGL-10m_RLatLon0.03_PT014H.grib2 2026-05-02 18:09 2.4M
20260502T12Z_MSC_CAPS_WindGust_AGL-10m_RLatLon0.03_PT014H.grib2 2026-05-02 18:09 2.5M
20260502T12Z_MSC_CAPS_WindSpeed_AGL-10m_RLatLon0.03_PT014H.grib2 2026-05-02 18:09 2.1M
20260502T12Z_MSC_CAPS_WindSpeed_AGL-120m_RLatLon0.03_PT014H.grib2 2026-05-02 18:09 1.1M
20260502T12Z_MSC_CAPS_WindSpeed_AGL-40m_RLatLon0.03_PT014H.grib2 2026-05-02 18:09 1.2M
20260502T12Z_MSC_CAPS_WindSpeed_AGL-80m_RLatLon0.03_PT014H.grib2 2026-05-02 18:09 1.1M
20260502T12Z_MSC_CAPS_WindSpeed_IsbL-0050_RLatLon0.03_PT014H.grib2 2026-05-02 18:09 921K
20260502T12Z_MSC_CAPS_WindSpeed_IsbL-0100_RLatLon0.03_PT014H.grib2 2026-05-02 18:09 1.0M
20260502T12Z_MSC_CAPS_WindSpeed_IsbL-0150_RLatLon0.03_PT014H.grib2 2026-05-02 18:09 1.1M
20260502T12Z_MSC_CAPS_WindSpeed_IsbL-0175_RLatLon0.03_PT014H.grib2 2026-05-02 18:09 1.1M
20260502T12Z_MSC_CAPS_WindSpeed_IsbL-0200_RLatLon0.03_PT014H.grib2 2026-05-02 18:09 942K
20260502T12Z_MSC_CAPS_WindSpeed_IsbL-0225_RLatLon0.03_PT014H.grib2 2026-05-02 18:09 1.0M
20260502T12Z_MSC_CAPS_WindSpeed_IsbL-0250_RLatLon0.03_PT014H.grib2 2026-05-02 18:09 1.0M
20260502T12Z_MSC_CAPS_WindSpeed_IsbL-0275_RLatLon0.03_PT014H.grib2 2026-05-02 18:09 1.0M
20260502T12Z_MSC_CAPS_WindSpeed_IsbL-0300_RLatLon0.03_PT014H.grib2 2026-05-02 18:09 1.0M
20260502T12Z_MSC_CAPS_WindSpeed_IsbL-0350_RLatLon0.03_PT014H.grib2 2026-05-02 18:09 1.0M
20260502T12Z_MSC_CAPS_WindSpeed_IsbL-0400_RLatLon0.03_PT014H.grib2 2026-05-02 18:09 1.0M
20260502T12Z_MSC_CAPS_WindSpeed_IsbL-0450_RLatLon0.03_PT014H.grib2 2026-05-02 18:09 1.0M
20260502T12Z_MSC_CAPS_WindSpeed_IsbL-0500_RLatLon0.03_PT014H.grib2 2026-05-02 18:09 1.4M
20260502T12Z_MSC_CAPS_WindSpeed_IsbL-0550_RLatLon0.03_PT014H.grib2 2026-05-02 18:09 1.4M
20260502T12Z_MSC_CAPS_WindSpeed_IsbL-0600_RLatLon0.03_PT014H.grib2 2026-05-02 18:09 1.4M
20260502T12Z_MSC_CAPS_WindSpeed_IsbL-0650_RLatLon0.03_PT014H.grib2 2026-05-02 18:09 1.4M
20260502T12Z_MSC_CAPS_WindSpeed_IsbL-0700_RLatLon0.03_PT014H.grib2 2026-05-02 18:09 1.5M
20260502T12Z_MSC_CAPS_WindSpeed_IsbL-0750_RLatLon0.03_PT014H.grib2 2026-05-02 18:09 1.5M
20260502T12Z_MSC_CAPS_WindSpeed_IsbL-0800_RLatLon0.03_PT014H.grib2 2026-05-02 18:09 1.6M
20260502T12Z_MSC_CAPS_WindSpeed_IsbL-0850_RLatLon0.03_PT014H.grib2 2026-05-02 18:09 1.7M
20260502T12Z_MSC_CAPS_WindSpeed_IsbL-0875_RLatLon0.03_PT014H.grib2 2026-05-02 18:09 1.7M
20260502T12Z_MSC_CAPS_WindSpeed_IsbL-0900_RLatLon0.03_PT014H.grib2 2026-05-02 18:09 1.8M
20260502T12Z_MSC_CAPS_WindSpeed_IsbL-0925_RLatLon0.03_PT014H.grib2 2026-05-02 18:09 1.8M
20260502T12Z_MSC_CAPS_WindSpeed_IsbL-0950_RLatLon0.03_PT014H.grib2 2026-05-02 18:09 1.9M
20260502T12Z_MSC_CAPS_WindSpeed_IsbL-0970_RLatLon0.03_PT014H.grib2 2026-05-02 18:09 2.0M
20260502T12Z_MSC_CAPS_WindSpeed_IsbL-0985_RLatLon0.03_PT014H.grib2 2026-05-02 18:09 2.0M
20260502T12Z_MSC_CAPS_WindSpeed_IsbL-1000_RLatLon0.03_PT014H.grib2 2026-05-02 18:09 2.0M
20260502T12Z_MSC_CAPS_WindSpeed_IsbL-1015_RLatLon0.03_PT014H.grib2 2026-05-02 18:09 2.1M
20260502T12Z_MSC_CAPS_WindU_AGL-10m_RLatLon0.03_PT014H.grib2 2026-05-02 18:09 2.0M
20260502T12Z_MSC_CAPS_WindU_AGL-120m_RLatLon0.03_PT014H.grib2 2026-05-02 18:09 1.2M
20260502T12Z_MSC_CAPS_WindU_AGL-40m_RLatLon0.03_PT014H.grib2 2026-05-02 18:09 1.2M
20260502T12Z_MSC_CAPS_WindU_AGL-80m_RLatLon0.03_PT014H.grib2 2026-05-02 18:09 1.2M
20260502T12Z_MSC_CAPS_WindU_IsbL-0050_RLatLon0.03_PT014H.grib2 2026-05-02 18:09 773K
20260502T12Z_MSC_CAPS_WindU_IsbL-0100_RLatLon0.03_PT014H.grib2 2026-05-02 18:09 826K
20260502T12Z_MSC_CAPS_WindU_IsbL-0150_RLatLon0.03_PT014H.grib2 2026-05-02 18:09 722K
20260502T12Z_MSC_CAPS_WindU_IsbL-0175_RLatLon0.03_PT014H.grib2 2026-05-02 18:09 859K
20260502T12Z_MSC_CAPS_WindU_IsbL-0200_RLatLon0.03_PT014H.grib2 2026-05-02 18:09 873K
20260502T12Z_MSC_CAPS_WindU_IsbL-0225_RLatLon0.03_PT014H.grib2 2026-05-02 18:09 894K
20260502T12Z_MSC_CAPS_WindU_IsbL-0250_RLatLon0.03_PT014H.grib2 2026-05-02 18:09 701K
20260502T12Z_MSC_CAPS_WindU_IsbL-0275_RLatLon0.03_PT014H.grib2 2026-05-02 18:09 709K
20260502T12Z_MSC_CAPS_WindU_IsbL-0300_RLatLon0.03_PT014H.grib2 2026-05-02 18:09 715K
20260502T12Z_MSC_CAPS_WindU_IsbL-0350_RLatLon0.03_PT014H.grib2 2026-05-02 18:09 726K
20260502T12Z_MSC_CAPS_WindU_IsbL-0400_RLatLon0.03_PT014H.grib2 2026-05-02 18:09 949K
20260502T12Z_MSC_CAPS_WindU_IsbL-0450_RLatLon0.03_PT014H.grib2 2026-05-02 18:09 967K
20260502T12Z_MSC_CAPS_WindU_IsbL-0500_RLatLon0.03_PT014H.grib2 2026-05-02 18:09 1.0M
20260502T12Z_MSC_CAPS_WindU_IsbL-0550_RLatLon0.03_PT014H.grib2 2026-05-02 18:09 907K
20260502T12Z_MSC_CAPS_WindU_IsbL-0600_RLatLon0.03_PT014H.grib2 2026-05-02 18:09 942K
20260502T12Z_MSC_CAPS_WindU_IsbL-0650_RLatLon0.03_PT014H.grib2 2026-05-02 18:09 1.0M
20260502T12Z_MSC_CAPS_WindU_IsbL-0700_RLatLon0.03_PT014H.grib2 2026-05-02 18:09 1.0M
20260502T12Z_MSC_CAPS_WindU_IsbL-0750_RLatLon0.03_PT014H.grib2 2026-05-02 18:09 1.1M
20260502T12Z_MSC_CAPS_WindU_IsbL-0800_RLatLon0.03_PT014H.grib2 2026-05-02 18:09 1.4M
20260502T12Z_MSC_CAPS_WindU_IsbL-0850_RLatLon0.03_PT014H.grib2 2026-05-02 18:09 1.2M
20260502T12Z_MSC_CAPS_WindU_IsbL-0875_RLatLon0.03_PT014H.grib2 2026-05-02 18:09 1.2M
20260502T12Z_MSC_CAPS_WindU_IsbL-0900_RLatLon0.03_PT014H.grib2 2026-05-02 18:09 1.3M
20260502T12Z_MSC_CAPS_WindU_IsbL-0925_RLatLon0.03_PT014H.grib2 2026-05-02 18:09 1.3M
20260502T12Z_MSC_CAPS_WindU_IsbL-0950_RLatLon0.03_PT014H.grib2 2026-05-02 18:09 1.4M
20260502T12Z_MSC_CAPS_WindU_IsbL-0970_RLatLon0.03_PT014H.grib2 2026-05-02 18:09 1.4M
20260502T12Z_MSC_CAPS_WindU_IsbL-0985_RLatLon0.03_PT014H.grib2 2026-05-02 18:09 1.8M
20260502T12Z_MSC_CAPS_WindU_IsbL-1000_RLatLon0.03_PT014H.grib2 2026-05-02 18:09 1.8M
20260502T12Z_MSC_CAPS_WindU_IsbL-1015_RLatLon0.03_PT014H.grib2 2026-05-02 18:09 2.0M
20260502T12Z_MSC_CAPS_WindV_AGL-10m_RLatLon0.03_PT014H.grib2 2026-05-02 18:09 2.0M
20260502T12Z_MSC_CAPS_WindV_AGL-120m_RLatLon0.03_PT014H.grib2 2026-05-02 18:09 1.1M
20260502T12Z_MSC_CAPS_WindV_AGL-40m_RLatLon0.03_PT014H.grib2 2026-05-02 18:09 1.2M
20260502T12Z_MSC_CAPS_WindV_AGL-80m_RLatLon0.03_PT014H.grib2 2026-05-02 18:09 1.1M
20260502T12Z_MSC_CAPS_WindV_IsbL-0050_RLatLon0.03_PT014H.grib2 2026-05-02 18:09 946K
20260502T12Z_MSC_CAPS_WindV_IsbL-0100_RLatLon0.03_PT014H.grib2 2026-05-02 18:09 1.0M
20260502T12Z_MSC_CAPS_WindV_IsbL-0150_RLatLon0.03_PT014H.grib2 2026-05-02 18:09 725K
20260502T12Z_MSC_CAPS_WindV_IsbL-0175_RLatLon0.03_PT014H.grib2 2026-05-02 18:09 734K
20260502T12Z_MSC_CAPS_WindV_IsbL-0200_RLatLon0.03_PT014H.grib2 2026-05-02 18:09 876K
20260502T12Z_MSC_CAPS_WindV_IsbL-0225_RLatLon0.03_PT014H.grib2 2026-05-02 18:09 896K
20260502T12Z_MSC_CAPS_WindV_IsbL-0250_RLatLon0.03_PT014H.grib2 2026-05-02 18:09 913K
20260502T12Z_MSC_CAPS_WindV_IsbL-0275_RLatLon0.03_PT014H.grib2 2026-05-02 18:09 921K
20260502T12Z_MSC_CAPS_WindV_IsbL-0300_RLatLon0.03_PT014H.grib2 2026-05-02 18:09 928K
20260502T12Z_MSC_CAPS_WindV_IsbL-0350_RLatLon0.03_PT014H.grib2 2026-05-02 18:09 941K
20260502T12Z_MSC_CAPS_WindV_IsbL-0400_RLatLon0.03_PT014H.grib2 2026-05-02 18:09 951K
20260502T12Z_MSC_CAPS_WindV_IsbL-0450_RLatLon0.03_PT014H.grib2 2026-05-02 18:09 969K
20260502T12Z_MSC_CAPS_WindV_IsbL-0500_RLatLon0.03_PT014H.grib2 2026-05-02 18:09 1.0M
20260502T12Z_MSC_CAPS_WindV_IsbL-0550_RLatLon0.03_PT014H.grib2 2026-05-02 18:09 911K
20260502T12Z_MSC_CAPS_WindV_IsbL-0600_RLatLon0.03_PT014H.grib2 2026-05-02 18:09 943K
20260502T12Z_MSC_CAPS_WindV_IsbL-0650_RLatLon0.03_PT014H.grib2 2026-05-02 18:09 1.0M
20260502T12Z_MSC_CAPS_WindV_IsbL-0700_RLatLon0.03_PT014H.grib2 2026-05-02 18:09 1.3M
20260502T12Z_MSC_CAPS_WindV_IsbL-0750_RLatLon0.03_PT014H.grib2 2026-05-02 18:09 1.3M
20260502T12Z_MSC_CAPS_WindV_IsbL-0800_RLatLon0.03_PT014H.grib2 2026-05-02 18:09 1.4M
20260502T12Z_MSC_CAPS_WindV_IsbL-0850_RLatLon0.03_PT014H.grib2 2026-05-02 18:09 1.2M
20260502T12Z_MSC_CAPS_WindV_IsbL-0875_RLatLon0.03_PT014H.grib2 2026-05-02 18:09 1.2M
20260502T12Z_MSC_CAPS_WindV_IsbL-0900_RLatLon0.03_PT014H.grib2 2026-05-02 18:09 1.2M
20260502T12Z_MSC_CAPS_WindV_IsbL-0925_RLatLon0.03_PT014H.grib2 2026-05-02 18:09 1.3M
20260502T12Z_MSC_CAPS_WindV_IsbL-0950_RLatLon0.03_PT014H.grib2 2026-05-02 18:09 1.3M
20260502T12Z_MSC_CAPS_WindV_IsbL-0970_RLatLon0.03_PT014H.grib2 2026-05-02 18:09 1.4M
20260502T12Z_MSC_CAPS_WindV_IsbL-0985_RLatLon0.03_PT014H.grib2 2026-05-02 18:09 1.8M
20260502T12Z_MSC_CAPS_WindV_IsbL-1000_RLatLon0.03_PT014H.grib2 2026-05-02 18:09 1.8M
20260502T12Z_MSC_CAPS_WindV_IsbL-1015_RLatLon0.03_PT014H.grib2 2026-05-02 18:09 1.8M